Location: Unspecified
(33.6682°S, 0.0000°E)
Time: 13:26:54
(UTC+00:00)

Transit 2A - All Passes

Search period start: 24 June 2019 00:00
Search period end: 04 July 2019 00:00
Orbit: 593 x 966 km, 66.7° (Epoch: 23 June)

Date Brightness Start Highest point End Pass type
(mag) Time Alt. Az. Time Alt. Az. Time Alt. Az.
24 Jun - 10:10:12 10° NE 10:12:19 13° ENE 10:14:26 10° ESE daylight
24 Jun - 11:50:54 10° NW 11:54:59 40° WSW 11:59:09 10° S daylight
24 Jun - 20:39:28 10° SSW 20:44:45 59° ESE 20:50:33 10° NE night (unlit)
24 Jun - 22:24:13 10° WSW 22:27:35 16° WNW 22:31:06 10° NW night (unlit)
25 Jun - 11:16:33 10° NNW 11:20:51 68° WSW 11:25:13 10° SSE daylight
25 Jun - 20:05:36 10° S 20:10:36 40° ESE 20:16:03 10° NE night (unlit)
25 Jun - 21:49:11 10° SW 21:53:37 25° WNW 21:58:20 10° NNW night (unlit)
26 Jun - 10:42:28 10° NNW 10:46:47 71° ENE 10:51:08 10° SSE daylight
26 Jun - 19:31:52 10° S 19:36:25 27° ESE 19:41:16 10° ENE visible
26 Jun - 21:14:35 10° SW 21:19:36 38° WNW 21:25:02 10° N night (unlit)
27 Jun - 10:08:41 10° N 10:12:45 41° ENE 10:16:52 10° SE daylight
27 Jun - 11:53:29 10° W 11:56:05 15° SW 11:58:42 10° SSW daylight
27 Jun - 18:58:22 10° S 19:02:09 19° SE 19:06:08 10° E visible
27 Jun - 20:40:14 10° SW 20:45:33 57° WNW 20:51:23 10° N night (unlit)
28 Jun - 09:35:14 10° NNE 09:38:46 25° ENE 09:42:20 10° SE daylight
28 Jun - 11:18:18 10° WNW 11:21:47 23° SW 11:25:20 10° S daylight
28 Jun - 18:25:19 10° SSE 18:27:49 13° SE 18:30:23 10° ESE visible
28 Jun - 20:06:03 10° SSW 20:11:29 85° WNW 20:17:27 10° NNE visible
29 Jun - 09:02:22 10° NE 09:04:50 15° ENE 09:07:19 10° ESE daylight
29 Jun - 10:43:34 10° NW 10:47:34 36° WSW 10:51:40 10° S daylight
29 Jun - 19:32:00 10° SSW 19:37:23 65° ESE 19:43:16 10° NE visible
29 Jun - 21:17:03 10° WSW 21:20:10 15° WNW 21:23:24 10° NW night (unlit)
30 Jun - 10:09:09 10° NW 10:13:24 61° WSW 10:17:46 10° SSE daylight
30 Jun - 18:58:05 10° SSW 19:03:14 44° ESE 19:08:50 10° NE visible
30 Jun - 20:41:53 10° WSW 20:46:12 23° WNW 20:50:47 10° NNW visible
01 Jul - 09:35:01 10° NNW 09:39:19 80° ENE 09:43:43 10° SSE daylight
01 Jul - 18:24:19 10° S 18:29:03 30° ESE 18:34:08 10° ENE visible
01 Jul - 20:07:14 10° SW 20:12:12 35° WNW 20:17:34 10° N visible
02 Jul - 09:01:09 10° N 09:05:17 46° ENE 09:09:29 10° SE daylight
02 Jul - 10:46:22 10° W 10:48:41 14° SW 10:51:03 10° SSW daylight
02 Jul - 17:50:45 10° S 17:54:48 21° SE 17:59:05 10° ENE visible
02 Jul - 19:32:49 10° SW 19:38:11 52° WNW 19:43:59 10° N visible
03 Jul - 08:27:38 10° NNE 08:31:18 27° ENE 08:35:01 10° SE daylight
03 Jul - 10:11:02 10° WNW 10:14:23 21° SW 10:17:48 10° S daylight
03 Jul - 17:17:32 10° SSE 17:20:29 15° SE 17:23:33 10° E daylight
03 Jul - 18:58:36 10° SSW 19:04:06 79° WNW 19:10:07 10° NNE visible
